Fryeburg, ME

9:44 PM EDT on July 27, 2017 (GMT -0400)
Eastern Slopes Regional

Weather History for KIZG - November, 2014

Change the Weather History Date:

Thursday, November 20, 2014

  Actual Average Record
Temperature  
Mean Temperature 26 °F -  
Max Temperature 37 °F 42 °F 60 °F (1999)
Min Temperature 16 °F 23 °F 3 °F (2008)
Degree Days  
Heating Degree Days 38    
Moisture  
Dew Point 14 °F    
Average Humidity 58    
Maximum Humidity 88    
Minimum Humidity 41    
Precipitation  
Precipitation 0.00 in - - ()
Sea Level Pressure  
Sea Level Pressure 29.85 in    
Wind  
Wind Speed 4 mph (WSW)    
Max Wind Speed 12 mph    
Max Gust Speed 24 mph    
Visibility 10 miles    
Events      
Averages and records for this station are not official NWS values.
T = Trace of Precipitation, MM = Missing Value Source: NWS Daily Summary

Daily Weather History Graph

Daily Weather History Graph

Search for Another Location

Airport or City:

Trip Planner

Search our weather history database for the weather conditions in past years. The results will help you decide how hot, cold, wet, or windy it might be!

Date:

Astronomy

Nov. 20, 2014 Rise Set
Actual Time 6:45 AM EST 4:13 PM EST
Civil Twilight 6:13 AM EST 4:44 PM EST
Nautical Twilight 5:38 AM EST 5:20 PM EST
Astronomical Twilight 5:04 AM EST 5:54 PM EST
Moon 4:32 AM EST (11/20) 3:19 PM EST (11/20)
Length of Visible Light 10h 31m
Length of Day
9h 28m
Waning Crescent, 4% of the Moon is Illuminated
Nov 20
Waning Crescent
Nov 22
New
Nov 29
First Quarter
Dec 6
Full
Dec 14
Last Quarter

Hourly Weather History & Observations

Time (EST) Temp. Windchill Dew Point Humidity Pressure Visibility Wind Dir Wind Speed Gust Speed Precip Events Conditions
12:54 AM 24.1 °F - 12.9 °F 62% 29.99 in 10.0 mi Calm Calm - N/A   Overcast
1:54 AM 25.0 °F - 15.1 °F 66% 29.96 in 10.0 mi Calm Calm - N/A   Overcast
2:54 AM 25.0 °F - 15.1 °F 66% 29.94 in 10.0 mi Calm Calm - N/A   Overcast
3:54 AM 21.0 °F - 16.0 °F 81% 29.91 in 10.0 mi Calm Calm - N/A   Scattered Clouds
4:54 AM 17.1 °F 11.7 °F 14.0 °F 88% 29.91 in 10.0 mi NNW 3.5 mph - N/A   Clear
5:54 AM 16.0 °F - 12.0 °F 84% 29.90 in 10.0 mi Calm Calm - N/A   Scattered Clouds
6:54 AM 19.0 °F 13.9 °F 15.1 °F 85% 29.88 in 10.0 mi SW 3.5 mph - N/A   Mostly Cloudy
7:54 AM 19.9 °F 14.9 °F 15.1 °F 81% 29.87 in 10.0 mi SE 3.5 mph - N/A   Partly Cloudy
8:54 AM 30.0 °F 26.5 °F 15.1 °F 54% 29.85 in 10.0 mi South 3.5 mph - N/A   Mostly Cloudy
9:54 AM 33.1 °F 25.5 °F 15.1 °F 48% 29.83 in 10.0 mi WSW 9.2 mph - N/A   Clear
10:54 AM 37.0 °F 31.0 °F 17.1 °F 44% 29.80 in 10.0 mi WSW 8.1 mph - N/A   Clear
11:54 AM 36.0 °F 29.6 °F 18.0 °F 48% 29.77 in 10.0 mi SW 8.1 mph - N/A   Overcast
12:54 PM 36.0 °F 29.6 °F 18.0 °F 48% 29.76 in 10.0 mi WSW 8.1 mph - N/A   Overcast
1:54 PM 36.0 °F 28.5 °F 18.0 °F 48% 29.75 in 10.0 mi SW 10.4 mph 17.3 mph N/A   Overcast
2:54 PM 37.0 °F 29.8 °F 17.1 °F 44% 29.75 in 10.0 mi WSW 10.4 mph 24.2 mph N/A   Overcast
3:54 PM 34.0 °F 26.6 °F 17.1 °F 50% 29.76 in 10.0 mi WSW 9.2 mph - N/A   Overcast
4:54 PM 32.0 °F 23.0 °F 14.0 °F 48% 29.79 in 10.0 mi West 11.5 mph 20.7 mph N/A   Partly Cloudy
5:54 PM 28.0 °F 24.2 °F 15.1 °F 58% 29.82 in 10.0 mi WSW 3.5 mph - N/A   Partly Cloudy
6:54 PM 28.0 °F 22.8 °F 14.0 °F 56% 29.83 in 10.0 mi West 4.6 mph - N/A   Clear
7:54 PM 28.9 °F 21.9 °F 9.0 °F 43% 29.84 in 10.0 mi West 6.9 mph - N/A   Clear
8:54 PM 28.0 °F 22.8 °F 7.0 °F 41% 29.84 in 10.0 mi West 4.6 mph - N/A   Clear
9:54 PM 25.0 °F 20.7 °F 9.0 °F 51% 29.85 in 10.0 mi WSW 3.5 mph - N/A   Clear
10:54 PM 23.0 °F 15.8 °F 8.1 °F 53% 29.85 in 10.0 mi SW 5.8 mph - N/A   Clear
11:54 PM 25.0 °F 19.3 °F 8.1 °F 49% 29.86 in 10.0 mi WSW 4.6 mph - N/A   Clear